COSMOS 1275 DEB, 12771

Orbit data source: Space-Track

COSMOS 1275 DEB, 12771 is space debris in LEO originally from a launch on Thu, 04 Jun 1981 UTC launched from the Plesetsk Missile And Space Complex (PKMTR). Debris objects in space refer to the collection of defunct objects orbiting the Earth. Examples of debris include non-operational satellites, rocket bodies, and fragments generated from explosions, collisions, or faulty payload assembly.

Loading next visibility...
Identifier
12771, 1981-053DQ
Orbit
LEO
Country
Flag of CISCIS
Related business
Manufacturer
Unknown
Mission
Spacecraft
Bus & Motor
Unknown
Mass
Unknown
Launch date (UTC)
1981-06-04 (44 years ago)
Launch vehicle
Unknown
Launch site
Plesetsk Missile And Space Complex (PKMTR)
Object type
Payload
Rocket body
Debris
Shape & HBR
Unknown shape, 0.1 m
Radar Cross Section
Small (<0.1 m²)

Expand to show TLE details & history
Last TLE update: 11 hours ago

TLE from 11 hours ago
0 COSMOS 1275 DEB
1 12771U 81053DQ  25296.07071512  .00001459  00000-0  15521-2 0  9997
2 12771  82.8648 302.7490 0154072  84.0975 337.4901 13.68451764187629
Epoch: 2025-10-23T01:41Z
TLE epoch observation values (Epoch: 2025-10-23T01:41:49.786Z)
Latitude
60.20642°
Longitude
-101.88232°
Altitude
910.531 km
Speed
7.455 km/s
True Right ascension
21h 01m 14s
True Declination
60° 03' 40"
Sunlit
Object was in daylight at epoch
Visualization orbit readout
Latitude
Unknown
Longitude
Unknown
Altitude
Unknown
Speed
Unknown
Apparent Right ascension
Unknown
Apparent Declination
Unknown
Sunlit
N/A
Visualization observer readout
Local Sidereal Time
08:02:48
Azimuth
Unknown
Elevation
Unknown
Doppler factor
Unknown
Orbital elements
Apogee altitude
1,116.006 km
Perigee altitude
888.583 km
Semi-major axis
7,380.431 km
Eccentricity
0.01541
Inclination
82.8648°
RAAN
302.749°
Arg. of periapsis
84.0975°
True anomaly
336.80196°
Mean anomaly
337.4901°
Eccentric anomaly
337.14726°
Mean motion
3.42311 °/min
Orbital period
105.17 mins
BSTAR
0.0015521
Loading maneuver chart data...
Computing Atmospheric mass density...

Documentation

Showing up to 5 results
|